Weather History for KUUU - November, 2013

Change the Weather History Date:

Saturday, November 30, 2013

  Actual Average Record
Temperature  
Mean Temperature 28 °F -  
Max Temperature 39 °F 48 °F 62 °F (2001)
Min Temperature 19 °F 33 °F 18 °F (1958)
Degree Days  
Heating Degree Days 37    
Moisture  
Dew Point 16 °F    
Average Humidity 61    
Maximum Humidity 79    
Minimum Humidity 46    
Precipitation  
Precipitation 0.00 in - - ()
Sea Level Pressure  
Sea Level Pressure 30.66 in    
Wind  
Wind Speed 7 mph (NNE)    
Max Wind Speed 9 mph    
Max Gust Speed -    
Visibility 10 miles    
Events      
Averages and records for this station are not official NWS values.
T = Trace of Precipitation, MM = Missing Value Source: NWS Daily Summary

Daily Weather History Graph

Daily Weather History Graph

Search for Another Location

Airport or City:

Trip Planner

Search our weather history database for the weather conditions in past years. The results will help you decide how hot, cold, wet, or windy it might be!

Date:

Astronomy

Nov. 30, 2013 Rise Set
Actual Time 6:51 AM EST 4:16 PM EST
Civil Twilight 6:20 AM EST 4:47 PM EST
Nautical Twilight 5:46 AM EST 5:21 PM EST
Astronomical Twilight 5:12 AM EST 5:54 PM EST
Moon 3:57 AM EST (11/30) 2:39 PM EST (11/30)
Length of Visible Light 10h 26m
Length of Day
9h 24m
Waning Crescent, 7% of the Moon is Illuminated
Nov 30
Waning Crescent
Dec 2
New
Dec 9
First Quarter
Dec 17
Full
Dec 25
Last Quarter

Hourly Weather History & Observations

Time (EST) Temp. Windchill Dew Point Humidity Pressure Visibility Wind Dir Wind Speed Gust Speed Precip Events Conditions
12:53 AM 23.0 °F 13.9 °F 5.0 °F 46% 30.73 in 10.0 mi North 8.1 mph - N/A   Clear
1:53 AM 21.9 °F 12.5 °F 6.1 °F 51% 30.74 in 10.0 mi North 8.1 mph - N/A   Clear
2:53 AM 21.0 °F 12.4 °F 7.0 °F 55% 30.74 in 10.0 mi North 6.9 mph - N/A   Clear
3:53 AM 21.0 °F 13.4 °F 8.1 °F 57% 30.74 in 10.0 mi North 5.8 mph - N/A   Clear
4:53 AM 19.9 °F 10.1 °F 9.0 °F 62% 30.74 in 10.0 mi North 8.1 mph - N/A   Clear
5:53 AM 19.9 °F 10.1 °F 9.0 °F 62% 30.75 in 10.0 mi North 8.1 mph - N/A   Clear
6:53 AM 19.9 °F 9.3 °F 9.0 °F 62% 30.76 in 10.0 mi North 9.2 mph - N/A   Clear
7:53 AM 21.0 °F 10.6 °F 9.0 °F 60% 30.77 in 10.0 mi North 9.2 mph - N/A   Clear
8:53 AM 25.0 °F 15.5 °F 12.0 °F 58% 30.77 in 10.0 mi North 9.2 mph - N/A   Clear
9:53 AM 28.0 °F 20.0 °F 14.0 °F 56% 30.76 in 10.0 mi North 8.1 mph - N/A   Clear
10:53 AM 30.9 °F 25.2 °F 17.1 °F 57% 30.74 in 10.0 mi North 5.8 mph - N/A   Clear
11:53 AM 33.1 °F - 15.1 °F 48% 30.71 in 10.0 mi Calm Calm - N/A   Clear
12:53 PM 33.1 °F 26.9 °F 19.0 °F 56% 30.68 in 10.0 mi Variable 6.9 mph - N/A   Mostly Cloudy
1:53 PM 34.0 °F 28.8 °F 19.9 °F 56% 30.66 in 10.0 mi SE 5.8 mph - N/A   Clear
2:53 PM 34.0 °F 28.8 °F 19.0 °F 54% 30.63 in 10.0 mi East 5.8 mph - N/A   Clear
3:53 PM 32.0 °F - 19.9 °F 61% 30.62 in 10.0 mi Calm Calm - N/A   Clear
4:53 PM 30.0 °F - 19.9 °F 66% 30.60 in 10.0 mi Calm Calm - N/A   Scattered Clouds
5:53 PM 32.0 °F 27.5 °F 21.0 °F 64% 30.58 in 10.0 mi NNE 4.6 mph - N/A   Overcast
6:53 PM 35.1 °F 29.3 °F 25.0 °F 67% 30.56 in 10.0 mi SE 6.9 mph - N/A   Overcast
7:53 PM 34.0 °F 29.8 °F 25.0 °F 70% 30.54 in 10.0 mi ESE 4.6 mph - N/A   Overcast
8:53 PM 30.9 °F - 25.0 °F 79% 30.52 in 10.0 mi Calm Calm - N/A   Scattered Clouds
9:53 PM 30.9 °F - 25.0 °F 79% 30.49 in 10.0 mi Calm Calm - N/A   Scattered Clouds
10:53 PM 37.9 °F 32.7 °F 28.9 °F 70% 30.47 in 10.0 mi SSE 6.9 mph - N/A   Overcast
11:53 PM 39.0 °F 33.4 °F 26.1 °F 60% 30.44 in 10.0 mi South 8.1 mph - N/A   Mostly Cloudy